Location: RyutenAO
(34.8939°N, 134.0022°E)
Time: 00:32:54
(UTC+09:00)

LilacSat-2 - Visible Passes

Search period start: 21 March 2023 00:00
Search period end: 31 March 2023 00:00
Orbit: 499 x 521 km, 97.5° (Epoch: 20 March)

Date Brightness Start Highest point End Pass type
(mag) Time Alt. Az. Time Alt. Az. Time Alt. Az.
21 Mar ? 05:28:55 10° NE 05:32:11 29° E 05:35:24 10° SSE visible
22 Mar ? 05:13:05 10° NE 05:15:40 18° E 05:18:14 10° SE visible
23 Mar ? 04:58:06 10° ENE 04:59:07 11° E 05:00:08 10° ESE visible
27 Mar ? 05:24:09 10° NE 05:27:15 25° E 05:30:19 10° SSE visible
28 Mar ? 05:08:22 10° ENE 05:10:38 15° E 05:12:53 10° SE visible
